FENGYUN 1C DEB, 29980

Orbit data source: Space-Track

FENGYUN 1C DEB, 29980 is space debris in SSO originally from a launch on Mon, 10 May 1999 UTC launched from the Taiyaun Space Center, China (TSC). Fengyun 1C debris stems from the Chinese weather satellite Fengyun-1C, which was intentionally destroyed by a Chinese anti-satellite missile in 2007. This event dramatically increased the amount of space debris, with thousands of trackable fragments posing hazards to satellites and human spaceflight. The Fengyun 1C debris cloud has become a focal point in discussions about space sustainability and the need for international regulations to prevent the creation of new debris.

Loading next visibility...
Identifier
29980, 1999-025LE
Orbit
SSO
Country
Flag of CNCN / PRC
Related business
Manufacturer
Unknown
Mission
Spacecraft
Bus & Motor
Unknown
Mass
Unknown
Launch date (UTC)
1999-05-10 (27 years ago)
Launch vehicle
Unknown
Launch site
Taiyaun Space Center, China (TSC)
Object type
Payload
Rocket body
Debris
Shape & HBR
Unknown shape, 0.1 m
Radar Cross Section
Medium (>0.1 m² and <1 m²)

Expand to show TLE details & history
Last TLE update: 13 hours ago

TLE from 13 hours ago
0 FENGYUN 1C DEB
1 29980U 99025LE  26208.03144894  .00000231  00000-0  15964-3 0  9998
2 29980  98.5770  10.1074 0086832 328.4831 145.5748 14.06449077  1709
Epoch: 2026-07-27T00:45Z
TLE epoch observation values (Epoch: 2026-07-27T00:45:17.188Z)
Latitude
64.1103°
Longitude
-107.92805°
Altitude
934.668 km
Speed
7.364 km/s
True Right ascension
13h 52m 27s
True Declination
63° 58' 42"
Sunlit
Object was in daylight at epoch
Visualization orbit readout
Latitude
Unknown
Longitude
Unknown
Altitude
Unknown
Speed
Unknown
Apparent Right ascension
Unknown
Apparent Declination
Unknown
Sunlit
N/A
Visualization observer readout
Local Sidereal Time
02:58:27
Azimuth
Unknown
Elevation
Unknown
Doppler factor
Unknown
Orbital elements
Apogee altitude
931.645 km
Perigee altitude
805.793 km
Semi-major axis
7,246.856 km
Eccentricity
0.00868
Inclination
98.577°
RAAN
10.1074°
Arg. of periapsis
328.4831°
True anomaly
146.13231°
Mean anomaly
145.5748°
Eccentric anomaly
145.85405°
Mean motion
3.51819 °/min
Orbital period
102.33 mins
BSTAR
0.00015964
Loading maneuver chart data...
Computing Atmospheric mass density...

Documentation

Showing up to 5 results
|